Weather History for Belleville, IL

Change the Weather History Date:

Sunday, November 18, 2012

  Actual Average Record
Temperature  
Mean Temperature 43 °F -  
Max Temperature 60 °F 56 °F 73 °F (1976)
Min Temperature 26 °F 36 °F 15 °F (1959)
Degree Days  
Heating Degree Days 22    
Moisture  
Dew Point 32 °F    
Average Humidity 82    
Maximum Humidity 100    
Minimum Humidity 38    
Precipitation  
Precipitation 0.00 in - - ()
Sea Level Pressure  
Sea Level Pressure 30.38 in    
Wind  
Wind Speed 1 mph (SE)    
Max Wind Speed 8 mph    
Max Gust Speed -    
Visibility 7 miles    
Events      
Averages and records for this station are not official NWS values.
T = Trace of Precipitation, MM = Missing Value Source: NWS Daily Summary

Daily Weather History Graph

Daily Weather History Graph

Search for Another Location

Airport:

Trip Planner

Search our weather history database for the weather conditions in past years. The results will help you decide how hot, cold, wet, or windy it might be!

Date:

Astronomy

Nov. 18, 2012 Rise Set
Actual Time 6:45 AM CST 4:43 PM CST
Civil Twilight 6:16 AM CST 5:12 PM CST
Nautical Twilight 5:44 AM CST 5:44 PM CST
Astronomical Twilight 5:12 AM CST 6:16 PM CST
Moon 11:12 AM CST 10:02 PM CST
Length of Visible Light 10h 55m
Length of Day
9h 58m
Waxing Crescent, 30% of the Moon is Illuminated
Nov 18
Waxing Crescent
Nov 20
First Quarter
Nov 28
Full
Dec 6
Last Quarter
Dec 13
New

Hourly Weather History & Observations

Time (CST) Temp. Windchill Dew Point Humidity Pressure Visibility Wind Dir Wind Speed Gust Speed Precip Events Conditions
12:55 AM 30.9 °F - 28.6 °F 91% 30.41 in 6.0 mi Calm Calm - N/A   Clear
1:55 AM 30.6 °F 27.1 °F 30.2 °F 99% 30.40 in 6.0 mi NW 3.5 mph - N/A   Clear
2:55 AM 29.5 °F - 29.3 °F 99% 30.41 in 7.0 mi Calm Calm - N/A   Clear
3:11 AM 28.4 °F - 28.4 °F 100% 30.41 in 5.0 mi Calm Calm - N/A   Clear
3:17 AM 28.4 °F - 28.4 °F 100% 30.40 in 5.0 mi Calm Calm - N/A   Clear
3:55 AM 28.8 °F - 27.5 °F 95% 30.40 in 6.0 mi Calm Calm - N/A   Clear
4:25 AM 28.4 °F - 28.4 °F 100% 30.40 in 1.5 mi Calm Calm - N/A   Clear
4:55 AM 27.9 °F - 27.7 °F 99% 30.40 in 6.0 mi Calm Calm - N/A   Clear
4:58 AM 28.4 °F - 28.4 °F 100% 30.41 in 4.0 mi Calm Calm - N/A   Clear
5:55 AM 27.3 °F - 26.8 °F 98% 30.41 in 5.0 mi Calm Calm - N/A   Clear
6:01 AM 28.4 °F - 26.6 °F 93% 30.42 in 4.0 mi Calm Calm - N/A   Clear
6:14 AM 28.4 °F - 26.6 °F 93% 30.42 in 4.0 mi Calm Calm - N/A   Clear
6:25 AM 28.4 °F - 26.6 °F 93% 30.42 in 4.0 mi Calm Calm - N/A   Clear
6:55 AM 27.5 °F - 27.1 °F 99% 30.42 in 2.0 mi Calm Calm - N/A   Clear
6:57 AM 26.6 °F - 26.6 °F 100% 30.42 in 3.0 mi Calm Calm - N/A   Clear
7:55 AM 29.7 °F - 29.5 °F 99% 30.42 in 4.0 mi Calm Calm - N/A   Clear
8:55 AM 39.0 °F - 35.4 °F 87% 30.42 in 10.0 mi Calm Calm - N/A   Clear
9:55 AM 46.0 °F - 37.4 °F 72% 30.42 in 10.0 mi Calm Calm - N/A   Clear
10:55 AM 52.0 °F - 37.6 °F 58% 30.41 in 10.0 mi Variable 3.5 mph - N/A   Clear
11:55 AM 55.6 °F - 38.1 °F 52% 30.38 in 10.0 mi SSE 5.8 mph - N/A   Clear
12:55 PM 58.8 °F - 37.6 °F 45% 30.36 in 10.0 mi SE 6.9 mph - N/A   Clear
1:55 PM 59.7 °F - 35.6 °F 41% 30.34 in 10.0 mi SE 8.1 mph - N/A   Clear
2:55 PM 60.3 °F - 34.3 °F 38% 30.32 in 9.0 mi SE 8.1 mph - N/A   Clear
3:55 PM 58.1 °F - 35.6 °F 43% 30.32 in 10.0 mi SE 8.1 mph - N/A   Clear
4:55 PM 51.1 °F - 35.2 °F 55% 30.32 in 10.0 mi ESE 4.6 mph - N/A   Clear
5:55 PM 49.6 °F - 35.1 °F 57% 30.33 in 10.0 mi Calm Calm - N/A   Clear
6:55 PM 40.8 °F - 35.1 °F 80% 30.34 in 10.0 mi Calm Calm - N/A   Clear
7:55 PM 41.2 °F - 34.7 °F 78% 30.35 in 10.0 mi Calm Calm - N/A   Clear
8:55 PM 37.0 °F - 33.1 °F 86% 30.34 in 10.0 mi Calm Calm - N/A   Clear
9:55 PM 38.7 °F - 33.4 °F 81% 30.34 in 10.0 mi Calm Calm - N/A   Clear
10:55 PM 37.0 °F - 35.1 °F 93% 30.34 in 10.0 mi Calm Calm - N/A   Clear
11:55 PM 37.4 °F - 34.3 °F 89% 30.32 in 10.0 mi Calm Calm - N/A   Partly Cloudy